Regional Weather Roundup
Issued by NWS

Home | Current Version | Previous Version | Graphics & Text | Print | Product List | Glossary Off
Versions: 1 2 3 4 5 6 7 8 9 10 11 12 13 14 15 16 17 18 19 20 21 22 23 24 25 26 27 28 29 30 31 32 33 34 35 36 37 38 39 40 41 42 43 44 45 46 47 48 49 50

000
ASUS45 KPSR 300710
RWRAZ

ARIZONA HOURLY REGIONAL WEATHER ROUNDUP
NATIONAL WEATHER SERVICE PHOENIX AZ
1200 AM MST SAT APR 30 2016

NOTE: FAIR INDICATES FEW OR NO CLOUDS BELOW 12,000 FEET WITH NO
SIGNIFICANT WEATHER AND/OR OBSTRUCTIONS TO VISIBILITY.

AZZ001>003-036-300800-
NORTHWEST ARIZONA

CITY           SKY/WX    TMP DP  RH WIND       PRES   REMARKS
BULLHEAD CITY  MOCLDY    73  32  21 S6        29.68S
KINGMAN        PTCLDY    59  34  39 S10       29.77F
$$

AZZ004>008-015-016-018-300800-
NORTH CENTRAL ARIZONA

CITY           SKY/WX    TMP DP  RH WIND       PRES   REMARKS
GRAND CANYON   LGT RAIN  40  34  79 W9        29.93R WCI  34
WILLIAMS       CLOUDY    41  32  70 S5        29.98F
PRESCOTT       MOCLDY    48  32  53 SE3       29.87F
FLAGSTAFF      CLOUDY    35  35 100 S3        29.93F
PAYSON         CLOUDY    45  41  87 NE3       29.93F
PAGE           MOCLDY    54  37  52 SW5       29.83F
$$

AZZ009>014-017-300800-
NORTHEAST ARIZONA

CITY           SKY/WX    TMP DP  RH WIND       PRES   REMARKS
WINSLOW        MOCLDY    49  37  63 SW10      29.88S
SAINT JOHNS    LGT RAIN  44  38  79 SW9       29.92S
WINDOW ROCK    MOCLDY    38  33  82 CALM      29.91S
SHOW LOW       CLOUDY    39  36  87 CALM      29.97S
$$

AZZ023-300800-
GREATER PHOENIX AREA

CITY           SKY/WX    TMP DP  RH WIND       PRES   REMARKS
PHOENIX        PTCLDY    72  33  24 SW8       29.75F
BUCKEYE        CLEAR     64  37  36 S6        29.78S
LUKE AFB       CLEAR     69  37  30 SW12      29.75S
DEER VALLEY    PTCLDY    67  35  30 SW5       29.77S
SCOTTSDALE     CLEAR     69  33  26 CALM      29.79S
MESA-GATEWAY   CLEAR     64  36  34 SW6       29.72F
$$

AZZ027-028-300800-
SOUTHWEST MARICOPA COUNTY AND PINAL COUNTY

CITY           SKY/WX    TMP DP  RH WIND       PRES   REMARKS
CASA GRANDE    CLEAR     64  36  34 SW5       29.82S
GILA BEND      FAIR      70  37  29 S9        29.76F
$$

AZZ503-504-507>509-300800-
SOUTHEAST ARIZONA

CITY           SKY/WX    TMP DP  RH WIND       PRES   REMARKS
TUCSON         CLEAR     63  34  33 SW7       29.88S
DAVIS-MONTHAN  CLEAR     60  33  35 S3        29.87R
NOGALES        CLEAR     51  33  50 SE3       29.92S
SIERRA VISTA   CLEAR     53  31  42 SW9       29.95S
DOUGLAS        CLEAR     53  27  36 CALM      29.93R
SAFFORD        PTCLDY    56  30  37 N8        29.85F
$$

AZZ020-021-025-026-031-300800-
SOUTHWEST ARIZONA

CITY           SKY/WX    TMP DP  RH WIND       PRES   REMARKS
YUMA           CLEAR     68  47  46 S7        29.78
$$

CAZ031-033-041-043-047-048-061-300800-
SOUTHERN CALIFORNIA

CITY           SKY/WX    TMP DP  RH WIND       PRES   REMARKS
DOWNTOWN L.A.  MOCLDY    57  51  80 CALM      29.89S
L.A. AIRPORT   PTCLDY    56  51  84 SW8       29.89F
SAN DIEGO      CLOUDY    61  51  70 SW8       29.95F
BURBANK        CLEAR     56  48  74 SE6       29.88S
ONTARIO        MOCLDY    54  48  80 W7        29.88F
RIVERSIDE      CLOUDY    57  49  74 CALM      29.89F
PALM SPRINGS   CLEAR     67  47  48 VRB5      29.73F
EL CENTRO NAS  CLEAR    N/A N/A N/A SW14      29.76F
IMPERIAL       CLEAR     70  40  33 W16       29.73F
BLYTHE         CLEAR     70  46  42 S16       29.72S
NEEDLES        PTCLDY    75  34  22 W15       29.67F
$$

NVZ020-UTZ003-300800-
SOUTHERN NEVADA-UTAH

CITY           SKY/WX    TMP DP  RH WIND       PRES   REMARKS
LAS VEGAS      CLOUDY    66  41  40 N14       29.67R
SALT LAKE CITY MOCLDY    48  41  76 SW5       29.86R
$$

NMZ009-TXZ055-300800-
NEW MEXICO-WEST TEXAS

CITY           SKY/WX    TMP DP  RH WIND       PRES   REMARKS
ALBUQUERQUE    CLOUDY    47  36  65 S9        29.89F
EL PASO        PTCLDY    62  28  27 N7        29.87S
$$


........................KEY........................
SKY/WX - SKY CONDITION/WEATHER
TMP    - TEMPERATURE IN FAHRENHEIT
DP     - DEW POINT IN FAHRENHEIT
RH     - RELATIVE HUMIDITY IN PERCENT
WIND   - DIRECTION AND SPEED IN MILES PER HOUR (MPH)
VRB    - VARIABLE WIND DIRECTION
PRES   - MEAN SEA LEVEL PRESSURE IN INCHES OF MERCURY
         F - FALLING PRESSURE   R - RISING PRESSURE
         S - STEADY PRESSURE
VSB    - VISIBILITY IN MILES
HX     - HEAT INDEX IN FAHRENHEIT
WCI    - WIND CHILL INDEX IN FAHRENHEIT
TC     - TEMPERATURE IN CELSIUS WHICH IS ALSO KNOWN AS
         TEMPERATURE IN CENTIGRADE
AFB    - AIR FORCE BASE
         LUKE AFB IS LUKE AIR FORCE BASE
         DAVIS-MONTHAN IS DAVIS-MONTHAN AIR FORCE BASE
NAS    - NAVAL AIR STATION
         EL CENTRO NAS IS EL CENTRO NAVAL AIR STATION
N/A    - NOT AVAILABLE




USA.gov is the U.S. government's official web portal to all federal, state and local government web resources and services.